Flag for Germany Weather past 2 weeks in Korschenbroich, North Rhine-Westphalia, Germany

Now
73 °F

Fog.


Feels Like: 73 °F
Forecast: 60 / 74 °F
Wind: 9 mph from North

Location: Monchengladbach Airport

Current Time: Jul 29, 2014 at 12:13:17 PM

Latest Report: Jul 29, 2014 at 11:50 AM


Visibility: 2 mi

Pressure: 29.83 "Hg

Humidity: 83%

Dew point: 68 °F

Location of KorschenbroichLocation

Historic Weather in Korschenbroich — Graph

°F

Korschenbroich temperature yesterday

Maximum temperature yesterday: 79 °F (at 12:20 PM)
Minimum temperature yesterday: 66 °F (at 7:50 AM)
Average temperature yesterday: 73 °F

Past Weeks' High & Low Weather Summary

 TemperatureHumidityPressure
High91 °F (Jul 19, 4:50 PM)100% (Jul 14, 10:20 AM)30.18 "Hg (Jul 14, 10:20 AM)
Low61 °F (Jul 14, 10:20 AM)29% (Jul 19, 12:50 PM)29.77 "Hg (Jul 20, 8:20 AM)
Average74 °F69%29.97 "Hg
* Reported Jul 14 10:20 AM — Jul 29 10:50 AM, Korschenbroich, Weather by CustomWeather, © 2014

Note: Actual official high and low records may vary slightly from our data, if they occured in-between our weather recording intervals... More about our weather records

Advertising

Korschenbroich weather history for previous 24 hours

 ConditionsComfort  
Time TempWeatherWind HumidityBarometerVisibility
10:50 AM
Jul 29
68 °FFog.7 mph94%29.86 "Hg1 mi
10:20 AM68 °FFog.8 mph94%29.83 "Hg1 mi
9:50 AM66 °FFog.6 mph100%29.86 "Hg1 mi
9:20 AM66 °FFog.7 mph100%29.83 "Hg1 mi
8:50 AM66 °FFog.7 mph100%29.83 "Hg1 mi
8:20 AM64 °FLight rain. Fog.7 mph100%29.83 "Hg1 mi
7:50 AM64 °FLight rain. Fog.7 mph100%29.83 "Hg1 mi
8:20 PM
Jul 28
70 °FFog.2 mph94%29.86 "Hg2 mi
7:50 PM70 °FFog.2 mph94%29.83 "Hg2 mi
7:20 PM70 °FFog.3 mph94%29.83 "Hg2 mi
6:50 PM70 °FThunderstorms. Passing clouds.6 mph88%29.83 "Hg4 mi
6:20 PM73 °FRain showers. Passing clouds.3 mph78%29.83 "Hg4 mi
5:50 PM75 °FPassing clouds.8 mph74%29.83 "Hg4 mi
5:20 PM75 °FPassing clouds.8 mph74%29.83 "Hg4 mi
4:50 PM75 °FPassing clouds.10 mph74%29.83 "Hg4 mi
4:20 PM75 °FPassing clouds.9 mph78%29.83 "Hg4 mi
3:50 PM72 °FPassing clouds.7 mph88%29.83 "HgN/A
3:20 PM72 °FPassing clouds.10 mph88%29.83 "HgN/A
2:50 PM70 °FPassing clouds.6 mph78%29.83 "HgN/A
2:20 PM72 °FPartly cloudy.6 mph73%29.83 "HgN/A
1:50 PM70 °FThundershowers. Passing clouds.7 mph73%29.83 "HgN/A
1:20 PM79 °FScattered clouds.8 mph54%29.83 "HgN/A
12:50 PM79 °FScattered clouds.7 mph58%29.83 "HgN/A
12:20 PM79 °FScattered clouds.7 mph61%29.83 "HgN/A
Weather by CustomWeather, © 2014

See weather overviewHow to use our weather pages